#timestamp,LO_Frequency,Hit,StdDev 
1506304815.6,286047000.7,N
1506304835.4,286046998.5,N
1506304855.2,286047001.0,N
1506304875.1,286047000.8,N
1506304876.0,286047000.8,N
1506304895.8,286046998.5,N
1506304915.7,286046998.4,N
1506304935.5,286047001.1,N
1506304955.3,286046999.6,N
1506304975.2,286046998.8,N
1506304995.0,286046998.5,N
1506304995.9,286046998.5,N
1506305015.8,286047001.2,N
1506305035.6,286046998.2,N
1506305055.4,286046999.2,N
1506305075.3,286047001.2,N
1506305095.1,286047001.2,N
1506305115.8,286047000.4,N
1506305135.7,286047000.4,N
1506305155.5,286047000.6,N
1506305175.4,286047001.1,N
1506305195.2,286047001.1,N
1506305215.0,286047000.5,N
1506305215.9,286047000.5,N
1506305235.8,286047000.6,N
1506305255.6,286046998.7,N
1506305275.5,286046998.7,N
1506305295.3,286047000.2,N
1506305315.1,286047000.7,N
1506305335.9,286047001.2,N
1506305355.7,286047000.3,N
1506305375.5,286047001.1,N
1506305395.4,286047001.0,N
1506305415.2,286047000.1,N
1506305435.1,286047001.0,N
1506305436.0,286047001.0,N
1506305455.8,286047000.8,N
1506305475.6,286046999.8,N
1506305495.5,286047000.2,N
1506305515.3,286046999.7,N
1506305535.1,286047000.5,N
1506305555.9,286046999.7,N
1506305575.7,286046998.1,N
1506305595.6,286046998.1,N
1506305615.4,286047000.7,N
1506305635.2,286047001.1,N
1506305655.1,286046998.7,N
1506305656.0,286046998.7,N
1506305675.8,286047000.8,N
1506305695.7,286046998.3,N
1506305715.5,286046999.4,N
1506305735.3,286046996.5,Y
1506305755.2,286046999.4,P
1506305775.0,286046998.3,P
1506305775.9,286046998.3,N
1506305795.7,286046998.2,N
1506305815.6,286047000.8,N
1506305835.4,286046999.9,N
1506305855.3,286047000.2,N
1506305875.1,286047001.0,N
1506305876.0,286047001.0,N
1506305895.8,286046999.0,N
1506305915.7,286047001.1,N
1506305935.5,286047000.5,N
1506305955.4,286047001.8,N
1506305975.2,286047002.7,N
1506305995.0,286047001.3,N
1506305995.9,286047001.3,N
1506306015.8,286047002.0,N
1506306035.6,286047001.9,N
1506306055.5,286047002.3,N
1506306075.3,286047002.8,N
1506306095.1,286047000.6,N
1506306115.9,286047000.9,N
1506306135.7,286047000.8,N
1506306155.5,286047000.1,N
1506306175.4,286047002.3,N
1506306195.2,286047002.1,N
1506306215.1,286047002.5,N
1506306216.0,286047002.5,N
1506306235.8,286046999.8,N
1506306255.6,286047000.4,N
1506306275.5,286047002.4,N
1506306295.3,286047001.5,N
1506306315.2,286047001.8,N
1506306335.9,286047004.4,Y
1506306355.7,286046999.8,P
1506306375.6,286047000.2,N
1506306395.4,286047002.0,P
1506306415.2,286047002.6,N
1506306435.1,286046999.9,N
1506306436.0,286046999.9,N
1506306455.8,286047001.2,N
1506306475.7,286047000.6,N
1506306495.5,286047000.8,N
1506306515.3,286047001.2,N
1506306535.2,286046998.5,N
1506306555.0,286046998.1,N
1506306555.9,286046998.1,N
1506306575.8,286046998.1,N
1506306595.6,286047000.6,N
1506306615.4,286047000.8,N
1506306635.3,286046998.8,N
1506306655.1,286047000.3,N
1506306675.9,286047000.4,N
1506306695.7,286047000.9,N
1506306715.5,286046998.8,N
1506306735.4,286047000.8,N
1506306755.2,286047000.9,N
1506306775.0,286046999.9,N
1506306775.9,286046999.9,N
1506306795.8,286047001.1,N
1506306815.6,286047000.3,N
1506306835.5,286047000.9,N
1506306855.3,286046998.1,N
1506306875.1,286046997.4,N
1506306895.9,286046997.2,N
1506306915.7,286046997.7,N
1506306935.6,286046996.9,N
1506306955.4,286046994.9,Y
1506306975.2,286046997.6,P
1506306995.1,286046999.3,N
1506306996.0,286046999.3,N
1506307015.8,286046996.5,Y
1506307035.7,286046999.6,P
1506307055.5,286046998.1,P
1506307075.3,286047001.1,N
1506307095.2,286047000.9,N
1506307115.9,286046998.6,N
1506307135.7,286046998.3,N
1506307155.6,286046999.0,N
1506307175.4,286047000.1,N
1506307195.3,286046998.9,N
1506307215.1,286046998.9,N
1506307216.0,286046998.9,N
1506307235.8,286046998.9,N
1506307255.7,286046996.9,Y
1506307275.5,286046999.4,P
1506307295.4,286046999.6,P
1506307315.2,286046999.5,P
1506307335.0,286046996.6,Y
1506307335.9,286046996.6,P
1506307355.8,286046999.3,N
1506307375.6,286046998.6,N
1506307395.5,286046996.8,N
1506307415.3,286046996.9,N
1506307435.1,286046999.5,N
1506307455.9,286046999.4,N
1506307475.7,286046999.4,N
1506307495.5,286046998.4,N
1506307515.4,286046997.2,N
1506307535.2,286046996.9,N
1506307555.1,286046997.1,N
1506307556.0,286046997.1,N
1506307575.8,286046997.4,N
1506307595.6,286046997.3,N
1506307615.5,286046996.6,Y
1506307635.3,286046998.3,P
1506307655.2,286046996.9,P
1506307675.9,286046999.2,N
1506307695.7,286046998.3,N
1506307715.6,286047001.1,N
1506307735.4,286047000.9,N
1506307755.2,286046998.1,N
1506307775.1,286047000.8,N
1506307776.0,286047000.8,N
1506307795.8,286047001.0,N
1506307815.7,286047000.1,N
1506307835.5,286047000.5,N
1506307855.3,286047000.7,N
1506307875.2,286047000.7,N
1506307895.0,286047001.0,N
1506307895.9,286047001.0,N
1506307915.8,286046999.0,N
1506307935.6,286047000.9,N
1506307955.4,286047000.8,N
1506307975.3,286047001.1,N
1506307995.1,286047001.0,N
1506308015.8,286047000.5,N
1506308035.7,286047000.8,N
1506308055.5,286046998.5,N
1506308075.4,286047000.7,N
1506308095.2,286047000.5,N
1506308115.0,286046996.8,N
1506308115.9,286046996.8,N
1506308135.8,286046999.4,N
1506308155.6,286046997.1,N
1506308175.4,286046997.4,N
1506308195.3,286046997.1,N
1506308215.1,286046997.8,N
1506308235.9,286046996.7,N
1506308255.7,286046999.0,N
1506308275.5,286046998.7,N
1506308295.4,286046998.4,N
1506308315.2,286046999.0,N
1506308335.1,286046999.5,N
1506308336.0,286046999.5,N
1506308355.8,286046998.8,N
1506308375.7,286046997.1,N
1506308395.5,286046995.3,Y
